| time (UTC) | temp F | wind direction | speed MPH | gust MPH | rain 1hr in | rain 24hr in | rain mn in | humidity % | barometer mb |
| 20260505052436 | 53 | 180 | 0.0 | 0.0 | 0.00 | 0.00 | 1.06 | 97 | 1010.9 |
| 20260505051837 | 52 | 0 | 0.0 | 0.0 | 0.00 | 0.00 | 1.06 | 98 | 1010.7 |
| 20260505051237 | 51 | 90 | 0.0 | 0.0 | 0.00 | 0.00 | 1.06 | 98 | 1010.8 |
| 20260505050637 | 53 | 0 | 0.0 | 0.0 | 0.00 | 0.00 | 1.06 | 97 | 1010.9 |
| 20260505040637 | 53 | 90 | 0.0 | 0.0 | 0.00 | 0.10 | 1.02 | 97 | 1011.6 |
| 20260505040036 | 53 | 180 | 0.0 | 1.0 | 0.00 | 0.11 | 1.02 | 97 | 1011.8 |
| 20260505035437 | 54 | 180 | 0.0 | 0.0 | 0.00 | 0.08 | 1.01 | 97 | 1012.0 |
| 20260505034837 | 52 | 45 | 0.0 | 0.0 | 0.00 | 0.07 | 1.00 | 97 | 1012.0 |
| 20260505034237 | 53 | 45 | 0.0 | 0.0 | 0.00 | 0.10 | 1.00 | 98 | 1012.1 |
| 20260505033637 | 52 | 180 | 0.0 | 0.0 | 0.00 | 0.11 | 1.00 | 98 | 1012.2 |
| 20260505033037 | 53 | 315 | 1.0 | 1.0 | 0.00 | 0.12 | 0.99 | 97 | 1012.2 |
| 20260505032437 | 53 | 0 | 0.0 | 0.0 | 0.00 | 0.11 | 0.98 | 98 | 1012.2 |
| 20260505031837 | 53 | 135 | 0.0 | 0.0 | 0.00 | 0.10 | 0.97 | 97 | 1012.3 |
| 20260505031237 | 52 | 0 | 0.0 | 0.0 | 0.00 | 0.08 | 0.96 | 97 | 1012.2 |
| 20260505030637 | 52 | 45 | 0.0 | 0.0 | 0.00 | 0.08 | 0.96 | 98 | 1012.2 |
| 20260505030037 | 52 | 135 | 0.0 | 0.0 | 0.00 | 0.10 | 0.95 | 98 | 1012.3 |
| 20260505025437 | 52 | 180 | 0.0 | 0.0 | 0.00 | 0.12 | 0.95 | 97 | 1012.4 |
| 20260505024837 | 53 | 45 | 0.0 | 0.0 | 0.00 | 0.11 | 0.94 | 97 | 1012.3 |
| 20260505024237 | 52 | 45 | 0.0 | 0.0 | 0.00 | 0.11 | 0.93 | 98 | 1012.5 |
| 20260505023637 | 53 | 90 | 0.0 | 0.0 | 0.00 | 0.11 | 0.93 | 98 | 1012.5 |
| 20260505023037 | 53 | 0 | 0.0 | 0.0 | 0.00 | 0.11 | 0.92 | 98 | 1012.7 |
| 20260505022436 | 52 | 45 | 0.0 | 0.0 | 0.00 | 0.10 | 0.91 | 97 | 1012.6 |
| 20260505021838 | 53 | 180 | 0.0 | 0.0 | 0.00 | 0.10 | 0.91 | 97 | 1012.6 |
| 20260505021237 | 53 | 0 | 0.0 | 0.0 | 0.00 | 0.11 | 0.90 | 98 | 1012.5 |
| 20260505020637 | 53 | 45 | 0.0 | 0.0 | 0.00 | 0.09 | 0.89 | 98 | 1012.5 |
| 20260505020037 | 52 | 180 | 0.0 | 0.0 | 0.00 | 0.08 | 0.88 | 98 | 1012.5 |
| 20260505015437 | 52 | 0 | 0.0 | 0.0 | 0.00 | 0.09 | 0.88 | 97 | 1012.6 |
| 20260505014836 | 53 | 90 | 0.0 | 0.0 | 0.00 | 0.10 | 0.87 | 98 | 1012.6 |
| 20260505014237 | 52 | 180 | 0.0 | 0.0 | 0.00 | 0.10 | 0.87 | 97 | 1012.6 |
| 20260505013637 | 53 | 180 | 0.0 | 0.0 | 0.00 | 0.10 | 0.86 | 97 | 1012.5 |
| 20260505013037 | 51 | 180 | 0.0 | 0.0 | 0.00 | 0.09 | 0.85 | 98 | 1012.4 |
| 20260505012436 | 53 | 135 | 0.0 | 0.0 | 0.00 | 0.09 | 0.85 | 98 | 1012.5 |
| 20260505011838 | 53 | 180 | 0.0 | 1.0 | 0.00 | 0.07 | 0.84 | 97 | 1012.5 |
| 20260505010637 | 52 | 180 | 0.0 | 0.0 | 0.00 | 0.04 | 0.83 | 98 | 1012.7 |
| 20260505010037 | 52 | 45 | 0.0 | 0.0 | 0.00 | 0.04 | 0.83 | 97 | 1012.6 |
| 20260505005436 | 53 | 180 | 0.0 | 0.0 | 0.00 | 0.05 | 0.82 | 97 | 1012.8 |
| 20260505004837 | 52 | 45 | 0.0 | 0.0 | 0.00 | 0.07 | 0.82 | 97 | 1012.8 |
| 20260505004236 | 53 | 225 | 0.0 | 0.0 | 0.00 | 0.09 | 0.82 | 98 | 1013.0 |
| 20260505003637 | 53 | 180 | 0.0 | 0.0 | 0.00 | 0.13 | 0.81 | 98 | 1013.1 |
| 20260505003037 | 52 | 180 | 0.0 | 0.0 | 0.00 | 0.13 | 0.81 | 98 | 1013.2 |
| 20260505002436 | 53 | 180 | 0.0 | 0.0 | 0.00 | 0.13 | 0.80 | 97 | 1013.2 |
| 20260505001837 | 53 | 0 | 0.0 | 0.0 | 0.00 | 0.13 | 0.79 | 98 | 1013.3 |
| 20260505001237 | 53 | 45 | 0.0 | 0.0 | 0.00 | 0.13 | 0.78 | 97 | 1013.5 |
| 20260505000637 | 53 | 90 | 0.0 | 0.0 | 0.00 | 0.13 | 0.78 | 97 | 1013.5 |
| 20260505000037 | 53 | 180 | 0.0 | 0.0 | 0.00 | 0.12 | 0.76 | 98 | 1013.5 |
| 20260504235437 | 52 | 135 | 0.0 | 0.0 | 0.00 | 0.11 | 0.76 | 98 | 1013.5 |
| 20260504234836 | 53 | 0 | 0.0 | 0.0 | 0.00 | 0.11 | 0.75 | 97 | 1013.6 |
| 20260504234237 | 53 | 0 | 0.0 | 1.0 | 0.00 | 0.12 | 0.74 | 97 | 1013.7 |
| 20260504233637 | 52 | 45 | 0.0 | 0.0 | 0.00 | 0.11 | 0.73 | 97 | 1013.8 |
| 20260504233037 | 53 | 180 | 0.0 | 0.0 | 0.00 | 0.09 | 0.72 | 98 | 1013.9 |
| 20260504232436 | 52 | 180 | 0.0 | 0.0 | 0.00 | 0.07 | 0.72 | 98 | 1013.8 |
| 20260504231837 | 52 | 180 | 1.0 | 1.0 | 0.00 | 0.06 | 0.71 | 98 | 1013.8 |
| 20260504231237 | 52 | 180 | 0.0 | 0.0 | 0.00 | 0.07 | 0.71 | 98 | 1013.5 |
| 20260504230637 | 54 | 135 | 0.0 | 0.0 | 0.00 | 0.09 | 0.70 | 97 | 1013.4 |
| 20260504230037 | 52 | 0 | 0.0 | 0.0 | 0.00 | 0.11 | 0.70 | 97 | 1013.5 |
| 20260504225437 | 52 | 315 | 0.0 | 0.0 | 0.00 | 0.11 | 0.69 | 98 | 1013.5 |
| 20260504224836 | 52 | 315 | 0.0 | 1.0 | 0.00 | 0.09 | 0.68 | 97 | 1013.5 |
| 20260504224237 | 54 | 180 | 0.0 | 0.0 | 0.00 | 0.06 | 0.67 | 98 | 1013.7 |
| 20260504223637 | 53 | 180 | 0.0 | 0.0 | 0.00 | 0.04 | 0.67 | 98 | 1013.7 |
| 20260504223037 | 52 | 315 | 0.0 | 0.0 | 0.00 | 0.04 | 0.67 | 97 | 1013.6 |
| 20260504221837 | 53 | 90 | 0.0 | 0.0 | 0.00 | 0.00 | 0.65 | 97 | 1013.4 |
| 20260504221237 | 52 | 90 | 0.0 | 0.0 | 0.00 | 0.00 | 0.65 | 97 | 1013.3 |
| 20260504220637 | 53 | 45 | 0.0 | 0.0 | 0.00 | 0.00 | 0.65 | 97 | 1013.3 |
| 20260504220037 | 52 | 45 | 0.0 | 0.0 | 0.00 | 0.00 | 0.65 | 97 | 1013.3 |
| 20260504215437 | 52 | 135 | 0.0 | 0.0 | 0.00 | 0.00 | 0.65 | 97 | 1013.3 |
| 20260504214837 | 52 | 90 | 0.0 | 0.0 | 0.00 | 0.00 | 0.65 | 97 | 1013.3 |
| 20260504214237 | 52 | 180 | 0.0 | 0.0 | 0.00 | 0.00 | 0.65 | 97 | 1013.3 |
| 20260504213637 | 52 | 180 | 0.0 | 0.0 | 0.00 | 0.00 | 0.65 | 97 | 1013.4 |
| 20260504213037 | 52 | 135 | 0.0 | 0.0 | 0.00 | 0.00 | 0.65 | 97 | 1013.4 |
| 20260504212437 | 52 | 45 | 0.0 | 0.0 | 0.00 | 0.00 | 0.65 | 97 | 1013.3 |
| 20260504211837 | 53 | 180 | 0.0 | 0.0 | 0.00 | 0.00 | 0.65 | 97 | 1013.5 |
| 20260504211237 | 53 | 180 | 0.0 | 0.0 | 0.00 | 0.00 | 0.65 | 97 | 1013.3 |
| 20260504210637 | 53 | 180 | 0.0 | 0.0 | 0.00 | 0.00 | 0.65 | 97 | 1013.6 |
| 20260504210037 | 52 | 0 | 0.0 | 0.0 | 0.00 | 0.00 | 0.65 | 97 | 1013.5 |
| 20260504205436 | 53 | 180 | 0.0 | 0.0 | 0.00 | 0.00 | 0.65 | 97 | 1013.6 |
| 20260504204837 | 53 | 180 | 0.0 | 0.0 | 0.00 | 0.00 | 0.65 | 97 | 1013.7 |
| 20260504204237 | 52 | 0 | 0.0 | 0.0 | 0.00 | 0.00 | 0.65 | 97 | 1013.6 |
| 20260504203637 | 53 | 135 | 0.0 | 0.0 | 0.00 | 0.00 | 0.65 | 97 | 1013.8 |
| 20260504203037 | 52 | 180 | 0.0 | 0.0 | 0.00 | 0.00 | 0.65 | 97 | 1013.9 |
| 20260504202437 | 52 | 180 | 0.0 | 0.0 | 0.00 | 0.00 | 0.65 | 97 | 1014.1 |
| 20260504201837 | 53 | 45 | 0.0 | 0.0 | 0.00 | 0.00 | 0.65 | 97 | 1014.0 |
| 20260504201238 | 53 | 90 | 0.0 | 0.0 | 0.00 | 0.00 | 0.65 | 97 | 1014.0 |
| 20260504200637 | 53 | 135 | 0.0 | 0.0 | 0.00 | 0.00 | 0.65 | 97 | 1014.0 |
| 20260504200037 | 53 | 0 | 0.0 | 0.0 | 0.00 | 0.00 | 0.65 | 97 | 1014.1 |
| 20260504195437 | 53 | 45 | 0.0 | 0.0 | 0.00 | 0.00 | 0.65 | 97 | 1014.0 |
| 20260504192437 | 53 | 180 | 0.0 | 0.0 | 0.00 | 0.00 | 0.65 | 97 | 1014.3 |
| 20260504190637 | 53 | 315 | 0.0 | 0.0 | 0.00 | 0.05 | 0.65 | 97 | 1014.6 |
| 20260504190037 | 53 | 0 | 0.0 | 0.0 | 0.00 | 0.06 | 0.65 | 97 | 1014.7 |
| 20260504183637 | 54 | 135 | 0.0 | 0.0 | 0.00 | 0.05 | 0.64 | 97 | 1014.9 |
| 20260504183037 | 54 | 0 | 0.0 | 1.0 | 0.00 | 0.05 | 0.63 | 97 | 1014.8 |
| 20260504182436 | 53 | 90 | 0.0 | 0.0 | 0.00 | 0.05 | 0.63 | 97 | 1014.8 |
| 20260504181836 | 54 | 45 | 0.0 | 0.0 | 0.00 | 0.07 | 0.63 | 97 | 1014.9 |
| 20260504181237 | 53 | 90 | 0.0 | 0.0 | 0.00 | 0.08 | 0.63 | 96 | 1015.0 |
| 20260504180637 | 53 | 135 | 0.0 | 0.0 | 0.00 | 0.10 | 0.62 | 97 | 1015.0 |
| 20260504180037 | 54 | 315 | 0.0 | 0.0 | 0.00 | 0.13 | 0.62 | 96 | 1015.1 |
| 20260504175437 | 53 | 135 | 0.0 | 0.0 | 0.00 | 0.11 | 0.61 | 96 | 1015.1 |
| 20260504174836 | 53 | 180 | 0.0 | 0.0 | 0.00 | 0.11 | 0.60 | 96 | 1015.2 |
| 20260504174237 | 54 | 45 | 0.0 | 0.0 | 0.00 | 0.09 | 0.59 | 96 | 1015.2 |
| 20260504173637 | 54 | 180 | 0.0 | 0.0 | 0.00 | 0.06 | 0.58 | 96 | 1015.2 |
| 20260504173037 | 54 | 180 | 0.0 | 1.0 | 0.00 | 0.05 | 0.57 | 96 | 1015.2 |
| 20260504172437 | 53 | 90 | 0.0 | 0.0 | 0.00 | 0.05 | 0.57 | 96 | 1015.2 |
| 20260504171837 | 54 | 45 | 0.0 | 0.0 | 0.00 | 0.07 | 0.57 | 96 | 1015.2 |
| 20260504171236 | 54 | 90 | 0.0 | 0.0 | 0.00 | 0.08 | 0.57 | 96 | 1015.2 |
| 20260504170637 | 54 | 180 | 0.0 | 0.0 | 0.00 | 0.09 | 0.57 | 96 | 1015.2 |
| 20260504150637 | 55 | 0 | 0.0 | 1.0 | 0.00 | 0.06 | 0.49 | 97 | 1016.2 |
| 20260504141237 | 54 | 135 | 0.0 | 0.0 | 0.00 | 0.08 | 0.45 | 97 | 1016.7 |
| 20260504140637 | 53 | 270 | 0.0 | 0.0 | 0.00 | 0.11 | 0.45 | 97 | 1016.7 |
| 20260504130637 | 53 | 45 | 0.0 | 0.0 | 0.00 | 0.06 | 0.39 | 97 | 1016.9 |
| 20260504110637 | 54 | 180 | 0.0 | 0.0 | 0.00 | 0.14 | 0.23 | 96 | 1017.3 |